sat.trackr.live / text

‹ back to catalog

STARLINK-31747

NORAD 59564 · 2024-076A

PAYLOAD ACTIVE UNKNOWN

§ Identity

Operator
Country
US
Launch date
2024-04-23
Launch site
AFETR
Launch vehicle
Mass (kg)
RCS (m²)

Purposes: comms

External: N2YO · Heavens-Above · Gunter

§ Orbital elements

Epoch: 2026-05-25T02:48:44.411616Z

Period
94.27 min
Inclination
43.0017°
Eccentricity
0.0000903
Mean motion
15.27574832 rev/d
Perigee alt
482.4 km
Apogee alt
483.7 km
Semi-major
6,861.2 km
B*
1.8453e-5
RAAN
286.8005°
Arg perigee
290.4981°
Mean anomaly
69.5774°
Rev number
11,830

§ Raw data

STARLINK-317471 59564U 24076A   26145.11718069  .00000246  00000+0  18453-4 0  99952 59564  43.0017 286.8005 0000903 290.4981  69.5774 15.27574832118305

JSON: /api/v1/satellites/59564 · /tle

For live sub-satellite position, see the globe view (requires WebGL).

§ Visibility from observer

Set your observer location to see the next 7 days of passes ≥ 10°. The values pass through the URL so the page stays shareable.

No JS? Fill the form by hand. The geolocation button needs JavaScript.